Location: Utrecht
(52.0907°N, 5.1214°E)
Time: 09:58:09
(UTC+02:00)

MOZHAYETS 4 - Pass Details

Date: 03 July 2022
Orbit: 660 x 679 km, 98.2° (Epoch: 09 August)

Event Time Altitude Azimuth Distance (km) Brightness Sun altitude
Rises 02:28:39 0° 123° (ESE) 3,024 10.9 -14.3°
Reaches altitude 10° 02:31:17 10° 109° (ESE) 2,110 10.2 -14.2°
Maximum altitude 02:34:48 22° 59° (ENE) 1,460 10.0 -14.1°
Drops below altitude 10° 02:38:20 10° 9° (N) 2,112 11.7 -14.0°
Sets 02:40:57 0° 355° (N) 3,027 12.6 -13.9°
